Location: Unspecified
(34.1100°N, 0.0000°E)
Time: 06:39:06
(UTC+00:00)

CSL-04 DEB - Visible Passes

Search period start: 04 April 2026 00:00
Search period end: 14 April 2026 00:00
Orbit: 662 x 758 km, 98.5° (Epoch: 29 March)

Date Brightness Start Highest point End Pass type
(mag) Time Alt. Az. Time Alt. Az. Time Alt. Az.
4 Apr 6.7 19:56:16 16° NE 19:56:16 16° NE 19:58:18 10° NNE visible
4 Apr 7.0 21:35:18 23° NW 21:35:18 23° NW 21:37:17 10° NNW visible
5 Apr 6.1 20:41:45 32° NNE 20:41:45 32° NNE 20:44:36 10° N visible
6 Apr 6.8 19:48:11 14° NE 19:48:11 14° NE 19:50:03 10° NNE visible
6 Apr 6.7 21:27:13 28° NW 21:27:13 28° NW 21:29:39 10° NNW visible
7 Apr 6.0 20:33:39 32° NNE 20:33:39 32° NNE 20:36:43 10° N visible
7 Apr 7.8 22:12:41 12° WNW 22:12:41 12° WNW 22:13:20 10° NW visible
8 Apr 6.9 19:40:06 12° ENE 19:40:06 12° ENE 19:41:32 10° NE visible
8 Apr 6.3 21:19:07 34° NNW 21:19:07 34° NNW 21:21:57 10° NNW visible
9 Apr 6.0 20:25:33 29° NE 20:25:33 29° NE 20:28:48 10° N visible
9 Apr 7.5 22:04:36 16° WNW 22:04:36 16° WNW 22:05:59 10° NW visible
10 Apr 6.0 21:11:02 40° NNW 21:11:02 40° NNW 21:14:13 10° NNW visible
11 Apr 6.1 20:17:27 26° NE 20:17:27 26° NE 20:20:50 10° NNE visible
11 Apr 7.2 21:56:29 20° WNW 21:56:29 20° WNW 21:58:31 10° NW visible
12 Apr 5.7 21:02:56 46° N 21:02:56 46° N 21:06:25 10° N visible
13 Apr 6.2 20:09:21 23° ENE 20:09:21 23° ENE 20:12:48 10° NNE visible
13 Apr 6.9 21:48:23 24° WNW 21:48:23 24° WNW 21:50:57 10° NW visible
